QPF
0.01 0.02 0.04 0.04 0.03 0.02 0.02 0.02 0.01 0.01 0.01 0.01 0.01 0.01 0.01 0.03 0.02 0.01 0.01 0.04 0.06 0.05 0.05 0.04 0.05 0.05 0.07 0.08 0.06 0.04 0.04 0.04 0.05 0.05 0.05 0.05 0.04 0.04 0.04 0.03 0.02 0.03 0.05
0.00 0.01 0.03 0.03 0.03 0.03 0.02 0.01 0.01 0.01 0.01 0.01 0.01 0.01 0.01 0.01 0.01 0.01 0.01 0.02 0.03 0.04 0.04 0.04 0.04 0.05 0.06 0.08 0.09 0.07 0.05 0.04 0.05 0.06 0.06 0.05 0.04 0.03 0.03 0.03 0.02 0.03 0.05
0.00 0.01 0.01 0.02 0.02 0.02 0.01 0.01 0.01 0.02 0.02 0.01 0.01 0.02 0.02 0.01 0.01 0.01 0.01 0.01 0.02 0.03 0.04 0.05 0.06 0.06 0.07 0.09 0.09 0.08 0.07 0.06 0.06 0.05 0.05 0.06 0.08 0.04 0.03 0.02 0.02 0.04 0.06
0.00 0.00 0.00 0.01 0.01 0.01 0.01 0.01 0.01 0.01 0.01 0.01 0.01 0.02 0.03 0.03 0.01 0.01 0.02 0.02 0.03 0.03 0.03 0.06 0.07 0.07 0.08 0.08 0.07 0.06 0.05 0.06 0.05 0.04 0.04 0.06 0.09 0.05 0.03 0.04 0.04 0.05 0.06
0.00 0.00 0.00 0.00 0.00 0.00 0.00 0.00 0.00 0.00 0.00 0.01 0.01 0.03 0.04 0.04 0.02 0.02 0.02 0.02 0.03 0.03 0.02 0.03 0.04 0.06 0.08 0.08 0.06 0.06 0.06 0.05 0.04 0.04 0.03 0.03 0.03 0.03 0.03 0.03 0.04 0.04 0.05
0.00 0.00 0.00 0.00 0.00 0.01 0.01 0.00 0.00 0.00 0.00 0.01 0.01 0.02 0.03 0.04 0.03 0.03 0.03 0.03 0.02 0.02 0.02 0.03 0.03 0.03 0.04 0.05 0.05 0.05 0.07 0.08 0.06 0.04 0.04 0.03 0.03 0.03 0.03 0.04 0.05 0.05 0.05
0.00 0.00 0.00 0.00 0.00 0.00 0.00 0.00 0.01 0.01 0.01 0.01 0.01 0.01 0.03 0.03 0.02 0.03 0.04 0.03 0.03 0.03 0.04 0.05 0.04 0.03 0.03 0.03 0.04 0.05 0.06 0.06 0.05 0.05 0.03 0.02 0.01 0.02 0.02 0.03 0.05 0.05 0.04
0.00 0.00 0.00 0.00 0.00 0.00 0.00 0.00 0.01 0.01 0.01 0.00 0.00 0.01 0.03 0.03 0.03 0.03 0.03 0.03 0.03 0.03 0.02 0.03 0.02 0.02 0.02 0.01 0.02 0.03 0.04 0.06 0.06 0.05 0.02 0.01 0.01 0.02 0.02 0.04 0.05 0.03 0.03
0.00 0.00 0.00 0.00 0.00 0.00 0.00 0.00 0.00 0.00 0.00 0.00 0.00 0.01 0.03 0.03 0.04 0.05 0.05 0.04 0.03 0.04 0.02 0.02 0.02 0.02 0.02 0.01 0.02 0.03 0.03 0.02 0.03 0.03 0.03 0.03 0.02 0.02 0.02 0.03 0.05 0.03 0.04
0.00 0.00 0.00 0.00 0.01 0.00 0.00 0.01 0.00 0.00 0.00 0.00 0.01 0.01 0.03 0.03 0.03 0.04 0.07 0.04 0.02 0.02 0.02 0.01 0.01 0.02 0.03 0.01 0.01 0.01 0.00 0.01 0.01 0.01 0.02 0.02 0.03 0.03 0.03 0.03 0.05 0.04 0.04
0.00 0.00 0.00 0.00 0.00 0.01 0.01 0.00 0.00 0.00 0.00 0.00 0.00 0.01 0.02 0.04 0.02 0.02 0.04 0.03 0.02 0.01 0.01 0.01 0.00 0.01 0.02 0.02 0.01 0.01 0.00 0.01 0.01 0.01 0.01 0.02 0.03 0.04 0.03 0.03 0.03 0.04 0.04
0.01 0.00 0.00 0.00 0.00 0.01 0.01 0.01 0.00 0.00 0.00 0.00 0.00 0.00 0.01 0.04 0.04 0.02 0.01 0.01 0.01 0.01 0.01 0.01 0.00 0.00 0.01 0.01 0.01 0.01 0.01 0.01 0.01 0.02 0.02 0.02 0.03 0.04 0.04 0.03 0.04 0.04 0.04
0.01 0.01 0.00 0.00 0.00 0.01 0.01 0.01 0.01 0.01 0.01 0.01 0.01 0.00 0.01 0.03 0.04 0.02 0.01 0.00 0.00 0.01 0.01 0.01 0.01 0.01 0.01 0.01 0.01 0.01 0.01 0.02 0.02 0.01 0.01 0.01 0.01 0.01 0.02 0.02 0.03 0.03 0.03
0.02 0.01 0.01 0.00 0.00 0.00 0.00 0.00 0.00 0.01 0.01 0.01 0.01 0.01 0.01 0.02 0.03 0.02 0.01 0.00 0.00 0.00 0.00 0.01 0.03 0.03 0.02 0.01 0.01 0.01 0.01 0.01 0.01 0.01 0.01 0.00 0.00 0.00 0.00 0.01 0.02 0.03 0.03
0.03 0.01 0.01 0.00 0.00 0.00 0.00 0.00 0.00 0.01 0.01 0.01 0.01 0.01 0.01 0.01 0.01 0.01 0.01 0.00 0.00 0.00 0.00 0.01 0.02 0.03 0.02 0.01 0.01 0.00 0.00 0.00 0.00 0.00 0.00 0.00 0.00 0.00 0.00 0.00 0.01 0.02 0.03
0.02 0.01 0.01 0.00 0.00 0.00 0.00 0.00 0.00 0.01 0.02 0.01 0.01 0.01 0.01 0.01 0.01 0.01 0.01 0.00 0.00 0.00 0.00 0.00 0.00 0.01 0.01 0.01 0.00 0.00 0.00 0.01 0.00 0.00 0.00 0.00 0.00 0.00 0.00 0.01 0.01 0.01 0.02
0.01 0.02 0.01 0.01 0.01 0.00 0.01 0.01 0.01 0.02 0.02 0.02 0.01 0.01 0.01 0.01 0.01 0.01 0.01 0.00 0.00 0.00 0.00 0.00 0.00 0.00 0.00 0.00 0.00 0.00 0.00 0.00 0.00 0.00 0.00 0.00 0.00 0.00 0.00 0.00 0.00 0.00 0.01
0.02 0.01 0.01 0.01 0.01 0.01 0.01 0.01 0.01 0.02 0.02 0.01 0.01 0.01 0.01 0.01 0.01 0.01 0.01 0.00 0.00 0.00 0.00 0.00 0.00 0.00 0.00 0.00 0.00 0.00 0.00 0.00 0.00 0.00 0.00 0.00 0.00 0.00 0.00 0.00 0.00 0.00 0.00
0.03 0.02 0.01 0.01 0.00 0.00 0.01 0.00 0.00 0.01 0.02 0.01 0.01 0.01 0.01 0.01 0.01 0.00 0.00 0.00 0.00 0.00 0.00 0.00 0.00 0.00 0.00 0.00 0.00 0.00 0.00 0.00 0.00 0.00 0.00 0.00 0.00 0.00 0.00 0.00 0.00 0.00 0.00
0.03 0.02 0.02 0.02 0.01 0.00 0.00 0.01 0.00 0.01 0.01 0.01 0.01 0.01 0.01 0.01 0.00 0.00 0.00 0.00 0.00 0.00 0.00 0.01 0.01 0.00 0.00 0.00 0.00 0.00 0.00 0.00 0.00 0.00 0.00 0.00 0.00 0.00 0.00 0.00 0.00 0.00 0.00
0.02 0.02 0.02 0.02 0.02 0.01 0.01 0.01 0.01 0.01 0.01 0.01 0.01 0.01 0.01 0.01 0.01 0.00 0.00 0.00 0.00 0.00 0.00 0.01 0.01 0.01 0.00 0.00 0.00 0.00 0.00 0.00 0.00 0.00 0.00 0.00 0.00 0.00 0.00 0.00 0.00 0.00 0.00
0.02 0.03 0.03 0.02 0.02 0.02 0.02 0.02 0.01 0.01 0.01 0.01 0.01 0.01 0.01 0.01 0.01 0.01 0.01 0.01 0.00 0.00 0.00 0.01 0.01 0.02 0.01 0.00 0.00 0.00 0.00 0.00 0.00 0.00 0.00 0.00 0.00 0.00 0.00 0.00 0.00 0.00 0.00
0.02 0.02 0.03 0.03 0.03 0.03 0.03 0.02 0.02 0.02 0.01 0.01 0.00 0.00 0.01 0.01 0.01 0.01 0.01 0.01 0.01 0.01 0.01 0.01 0.01 0.01 0.01 0.01 0.00 0.00 0.00 0.00 0.00 0.00 0.00 0.00 0.00 0.00 0.00 0.00 0.00 0.00 0.00
0.01 0.02 0.02 0.02 0.02 0.03 0.03 0.03 0.03 0.03 0.02 0.01 0.01 0.00 0.00 0.00 0.00 0.01 0.01 0.00 0.00 0.01 0.01 0.01 0.01 0.02 0.02 0.01 0.00 0.00 0.00 0.00 0.00 0.00 0.00 0.00 0.00 0.00 0.00 0.00 0.00 0.00 0.00
0.01 0.02 0.02 0.02 0.02 0.02 0.02 0.02 0.02 0.02 0.02 0.02 0.01 0.01 0.00 0.00 0.00 0.00 0.00 0.00 0.00 0.01 0.02 0.02 0.02 0.02 0.02 0.01 0.01 0.00 0.00 0.00 0.00 0.00 0.00 0.00 0.00 0.00 0.00 0.00 0.00 0.00 0.00
0.01 0.01 0.01 0.02 0.03 0.03 0.02 0.02 0.01 0.01 0.01 0.01 0.01 0.01 0.00 0.00 0.00 0.00 0.00 0.00 0.00 0.01 0.01 0.01 0.02 0.02 0.02 0.01 0.01 0.00 0.00 0.00 0.00 0.00 0.00 0.00 0.00 0.00 0.00 0.00 0.00 0.00 0.00
MSLP
1016.74 1016.68 1016.65 1016.65 1016.70 1016.82 1017.00 1017.24 1017.52 1017.81 1018.08 1018.30 1018.44 1018.50 1018.46 1018.34 1018.14 1017.87 1017.55 1017.22 1016.88 1016.56 1016.28 1016.07 1015.96 1015.95 1016.05 1016.25 1016.52 1016.83 1017.15 1017.45 1017.68 1017.86 1017.97 1018.02 1018.04 1018.04 1018.04 1018.04 1018.04 1018.05 1018.04
1016.93 1016.90 1016.92 1017.00 1017.15 1017.36 1017.64 1017.96 1018.31 1018.65 1018.95 1019.19 1019.35 1019.42 1019.38 1019.24 1019.02 1018.71 1018.35 1017.96 1017.55 1017.16 1016.82 1016.55 1016.38 1016.32 1016.38 1016.54 1016.79 1017.09 1017.41 1017.70 1017.96 1018.16 1018.30 1018.40 1018.45 1018.49 1018.51 1018.53 1018.54 1018.55 1018.55
1017.12 1017.12 1017.21 1017.37 1017.62 1017.93 1018.30 1018.69 1019.10 1019.48 1019.80 1020.06 1020.23 1020.30 1020.27 1020.14 1019.91 1019.60 1019.22 1018.80 1018.36 1017.93 1017.54 1017.22 1017.00 1016.90 1016.91 1017.04 1017.25 1017.52 1017.81 1018.10 1018.36 1018.57 1018.73 1018.84 1018.93 1018.99 1019.05 1019.09 1019.12 1019.15 1019.15
1017.32 1017.36 1017.50 1017.74 1018.07 1018.47 1018.91 1019.37 1019.81 1020.21 1020.54 1020.81 1020.98 1021.07 1021.06 1020.96 1020.76 1020.48 1020.13 1019.72 1019.28 1018.85 1018.44 1018.10 1017.85 1017.71 1017.68 1017.76 1017.93 1018.16 1018.41 1018.67 1018.90 1019.10 1019.26 1019.39 1019.49 1019.58 1019.65 1019.72 1019.78 1019.82 1019.85
1017.55 1017.61 1017.80 1018.10 1018.50 1018.96 1019.44 1019.92 1020.38 1020.78 1021.11 1021.38 1021.56 1021.68 1021.71 1021.66 1021.54 1021.33 1021.04 1020.70 1020.31 1019.91 1019.52 1019.18 1018.92 1018.76 1018.69 1018.73 1018.85 1019.02 1019.22 1019.43 1019.62 1019.79 1019.93 1020.05 1020.15 1020.24 1020.33 1020.42 1020.50 1020.57 1020.61
1017.85 1017.91 1018.12 1018.46 1018.88 1019.36 1019.86 1020.34 1020.78 1021.16 1021.49 1021.75 1021.96 1022.11 1022.22 1022.26 1022.24 1022.14 1021.97 1021.73 1021.43 1021.09 1020.76 1020.45 1020.19 1020.01 1019.92 1019.91 1019.97 1020.07 1020.21 1020.36 1020.49 1020.61 1020.72 1020.81 1020.90 1020.99 1021.09 1021.18 1021.27 1021.35 1021.41
1018.22 1018.28 1018.48 1018.81 1019.24 1019.70 1020.18 1020.63 1021.04 1021.39 1021.69 1021.96 1022.20 1022.42 1022.61 1022.78 1022.89 1022.94 1022.91 1022.80 1022.62 1022.38 1022.12 1021.85 1021.61 1021.42 1021.29 1021.23 1021.23 1021.26 1021.33 1021.41 1021.48 1021.55 1021.61 1021.67 1021.74 1021.81 1021.90 1021.99 1022.08 1022.16 1022.22
1018.69 1018.72 1018.90 1019.20 1019.58 1020.00 1020.43 1020.83 1021.18 1021.50 1021.78 1022.06 1022.35 1022.64 1022.95 1023.24 1023.51 1023.72 1023.86 1023.90 1023.85 1023.72 1023.53 1023.31 1023.08 1022.89 1022.72 1022.61 1022.54 1022.51 1022.50 1022.51 1022.52 1022.54 1022.56 1022.59 1022.63 1022.68 1022.75 1022.82 1022.89 1022.95 1023.00
1019.24 1019.23 1019.37 1019.62 1019.94 1020.30 1020.65 1020.98 1021.28 1021.55 1021.83 1022.12 1022.46 1022.83 1023.25 1023.69 1024.11 1024.48 1024.77 1024.96 1025.04 1025.01 1024.90 1024.72 1024.51 1024.30 1024.11 1023.94 1023.81 1023.71 1023.64 1023.59 1023.55 1023.53 1023.52 1023.53 1023.54 1023.57 1023.61 1023.65 1023.70 1023.73 1023.75
1019.84 1019.80 1019.89 1020.08 1020.33 1020.60 1020.88 1021.13 1021.37 1021.61 1021.88 1022.19 1022.57 1023.03 1023.55 1024.11 1024.66 1025.17 1025.60 1025.91 1026.10 1026.16 1026.12 1025.98 1025.78 1025.56 1025.33 1025.12 1024.94 1024.78 1024.66 1024.57 1024.51 1024.47 1024.44 1024.43 1024.44 1024.45 1024.47 1024.48 1024.49 1024.48 1024.46
1020.45 1020.39 1020.44 1020.56 1020.74 1020.94 1021.15 1021.34 1021.52 1021.73 1021.98 1022.30 1022.72 1023.23 1023.83 1024.47 1025.12 1025.73 1026.26 1026.67 1026.94 1027.08 1027.08 1026.98 1026.80 1026.58 1026.33 1026.09 1025.87 1025.68 1025.53 1025.42 1025.34 1025.30 1025.28 1025.28 1025.28 1025.29 1025.29 1025.27 1025.24 1025.19 1025.13
1021.02 1020.96 1020.98 1021.06 1021.19 1021.33 1021.47 1021.60 1021.74 1021.92 1022.15 1022.48 1022.91 1023.45 1024.07 1024.76 1025.45 1026.12 1026.70 1027.17 1027.50 1027.69 1027.74 1027.68 1027.53 1027.32 1027.07 1026.82 1026.59 1026.39 1026.23 1026.11 1026.04 1026.01 1026.01 1026.03 1026.05 1026.06 1026.05 1026.01 1025.95 1025.87 1025.77
1021.52 1021.48 1021.49 1021.56 1021.65 1021.75 1021.84 1021.94 1022.05 1022.20 1022.41 1022.72 1023.14 1023.67 1024.28 1024.95 1025.64 1026.30 1026.90 1027.39 1027.75 1027.98 1028.08 1028.07 1027.96 1027.79 1027.57 1027.34 1027.12 1026.93 1026.77 1026.67 1026.62 1026.61 1026.63 1026.67 1026.72 1026.74 1026.74 1026.69 1026.61 1026.50 1026.37
1021.95 1021.93 1021.97 1022.03 1022.11 1022.20 1022.28 1022.35 1022.44 1022.57 1022.77 1023.04 1023.42 1023.90 1024.46 1025.07 1025.71 1026.32 1026.88 1027.36 1027.74 1028.00 1028.15 1028.20 1028.16 1028.05 1027.89 1027.70 1027.52 1027.35 1027.21 1027.13 1027.09 1027.10 1027.15 1027.22 1027.28 1027.32 1027.33 1027.29 1027.20 1027.08 1026.94
1022.30 1022.34 1022.40 1022.49 1022.59 1022.67 1022.75 1022.83 1022.92 1023.03 1023.20 1023.44 1023.77 1024.17 1024.64 1025.16 1025.70 1026.24 1026.73 1027.18 1027.55 1027.84 1028.04 1028.16 1028.21 1028.18 1028.10 1027.98 1027.84 1027.71 1027.60 1027.53 1027.50 1027.52 1027.58 1027.66 1027.74 1027.80 1027.81 1027.79 1027.71 1027.59 1027.45
1022.60 1022.69 1022.81 1022.93 1023.05 1023.17 1023.27 1023.36 1023.45 1023.57 1023.72 1023.93 1024.19 1024.50 1024.87 1025.28 1025.70 1026.13 1026.55 1026.94 1027.29 1027.61 1027.86 1028.06 1028.20 1028.27 1028.27 1028.23 1028.15 1028.06 1027.96 1027.90 1027.87 1027.88 1027.93 1028.00 1028.08 1028.15 1028.18 1028.17 1028.10 1028.00 1027.87
1022.88 1023.02 1023.18 1023.34 1023.50 1023.65 1023.78 1023.90 1024.02 1024.15 1024.29 1024.47 1024.67 1024.91 1025.18 1025.47 1025.77 1026.09 1026.42 1026.75 1027.08 1027.40 1027.71 1027.98 1028.20 1028.37 1028.47 1028.50 1028.47 1028.41 1028.32 1028.25 1028.20 1028.18 1028.20 1028.25 1028.32 1028.38 1028.42 1028.42 1028.37 1028.29 1028.18
1023.15 1023.33 1023.52 1023.72 1023.91 1024.09 1024.25 1024.41 1024.56 1024.71 1024.86 1025.02 1025.19 1025.37 1025.55 1025.74 1025.94 1026.15 1026.39 1026.66 1026.96 1027.29 1027.63 1027.95 1028.25 1028.50 1028.67 1028.77 1028.79 1028.74 1028.66 1028.56 1028.48 1028.42 1028.40 1028.42 1028.46 1028.50 1028.53 1028.53 1028.50 1028.44 1028.35
1023.39 1023.60 1023.81 1024.03 1024.24 1024.44 1024.63 1024.82 1025.00 1025.17 1025.35 1025.51 1025.67 1025.81 1025.93 1026.05 1026.17 1026.30 1026.47 1026.68 1026.94 1027.26 1027.61 1027.97 1028.32 1028.63 1028.86 1029.00 1029.05 1029.02 1028.94 1028.82 1028.70 1028.60 1028.53 1028.50 1028.50 1028.52 1028.54 1028.54 1028.51 1028.46 1028.38
1023.59 1023.80 1024.02 1024.24 1024.45 1024.66 1024.87 1025.07 1025.28 1025.48 1025.68 1025.86 1026.02 1026.15 1026.26 1026.33 1026.40 1026.47 1026.58 1026.74 1026.97 1027.26 1027.61 1027.98 1028.36 1028.69 1028.96 1029.13 1029.21 1029.19 1029.10 1028.97 1028.82 1028.69 1028.59 1028.52 1028.48 1028.47 1028.47 1028.45 1028.42 1028.37 1028.29
1023.69 1023.90 1024.11 1024.32 1024.52 1024.72 1024.92 1025.13 1025.34 1025.56 1025.78 1025.99 1026.17 1026.32 1026.42 1026.49 1026.54 1026.58 1026.65 1026.78 1026.96 1027.23 1027.55 1027.91 1028.29 1028.63 1028.91 1029.11 1029.21 1029.21 1029.13 1029.00 1028.85 1028.70 1028.58 1028.49 1028.43 1028.39 1028.36 1028.32 1028.27 1028.20 1028.11
1023.67 1023.87 1024.07 1024.26 1024.43 1024.60 1024.78 1024.97 1025.17 1025.40 1025.63 1025.86 1026.07 1026.24 1026.37 1026.45 1026.50 1026.55 1026.60 1026.70 1026.85 1027.08 1027.37 1027.71 1028.06 1028.40 1028.69 1028.90 1029.02 1029.05 1029.00 1028.90 1028.78 1028.65 1028.53 1028.44 1028.37 1028.31 1028.26 1028.19 1028.11 1028.01 1027.89
1023.49 1023.70 1023.89 1024.05 1024.19 1024.32 1024.46 1024.61 1024.79 1025.00 1025.24 1025.48 1025.71 1025.91 1026.07 1026.18 1026.25 1026.31 1026.36 1026.45 1026.58 1026.78 1027.03 1027.34 1027.67 1027.99 1028.27 1028.50 1028.65 1028.72 1028.73 1028.68 1028.61 1028.52 1028.44 1028.37 1028.31 1028.25 1028.18 1028.09 1027.98 1027.83 1027.67
1023.16 1023.39 1023.57 1023.71 1023.82 1023.92 1024.01 1024.11 1024.25 1024.43 1024.64 1024.88 1025.11 1025.34 1025.52 1025.67 1025.78 1025.86 1025.93 1026.01 1026.14 1026.31 1026.53 1026.80 1027.10 1027.40 1027.69 1027.93 1028.11 1028.24 1028.31 1028.35 1028.35 1028.33 1028.32 1028.30 1028.27 1028.22 1028.14 1028.03 1027.88 1027.70 1027.50
1022.70 1022.95 1023.14 1023.28 1023.37 1023.43 1023.47 1023.53 1023.61 1023.75 1023.92 1024.14 1024.37 1024.60 1024.81 1024.98 1025.12 1025.23 1025.32 1025.41 1025.53 1025.69 1025.89 1026.13 1026.40 1026.69 1026.97 1027.23 1027.46 1027.64 1027.79 1027.90 1027.99 1028.07 1028.13 1028.17 1028.19 1028.17 1028.10 1027.98 1027.81 1027.60 1027.36
1022.13 1022.42 1022.63 1022.78 1022.86 1022.88 1022.89 1022.90 1022.93 1023.01 1023.15 1023.33 1023.54 1023.76 1023.97 1024.17 1024.33 1024.46 1024.57 1024.68 1024.81 1024.95 1025.14 1025.36 1025.62 1025.89 1026.17 1026.45 1026.71 1026.95 1027.16 1027.36 1027.53 1027.69 1027.83 1027.94 1028.01 1028.04 1028.00 1027.89 1027.72 1027.50 1027.25
Thickness
5734 5733 5733 5732 5732 5731 5730 5729 5727 5726 5724 5723 5721 5720 5719 5718 5718 5718 5718 5719 5720 5721 5721 5722 5721 5721 5721 5721 5721 5721 5721 5720 5721 5721 5722 5723 5723 5721 5721 5722 5722 5722 5723
5732 5731 5730 5729 5728 5728 5727 5725 5724 5722 5720 5718 5717 5716 5715 5714 5714 5714 5714 5714 5715 5716 5716 5717 5717 5717 5717 5717 5716 5716 5716 5715 5716 5716 5717 5718 5717 5716 5716 5717 5717 5718 5718
5730 5729 5727 5726 5725 5724 5723 5722 5720 5718 5716 5714 5713 5712 5711 5710 5709 5709 5709 5709 5710 5710 5711 5711 5711 5711 5712 5712 5711 5711 5711 5710 5710 5710 5711 5711 5711 5710 5710 5711 5712 5712 5712
5727 5726 5724 5723 5722 5721 5720 5718 5716 5713 5711 5709 5708 5707 5707 5706 5705 5705 5704 5704 5704 5704 5704 5705 5705 5706 5706 5706 5706 5706 5706 5705 5705 5705 5705 5705 5705 5705 5705 5705 5706 5706 5707
5724 5723 5722 5721 5720 5718 5716 5715 5712 5710 5707 5705 5704 5703 5702 5701 5701 5700 5699 5699 5699 5698 5698 5698 5699 5700 5700 5701 5701 5700 5700 5700 5700 5699 5699 5699 5699 5699 5699 5699 5700 5700 5701
5721 5721 5719 5718 5717 5715 5713 5711 5709 5707 5705 5703 5702 5698 5697 5696 5696 5695 5694 5694 5693 5693 5692 5692 5693 5693 5693 5694 5695 5695 5694 5694 5694 5694 5694 5694 5693 5693 5693 5693 5694 5695 5695
5718 5718 5716 5715 5714 5711 5709 5708 5706 5703 5701 5700 5696 5692 5691 5691 5691 5690 5689 5689 5688 5687 5687 5687 5687 5687 5687 5687 5688 5689 5689 5689 5688 5688 5688 5688 5688 5687 5687 5687 5689 5690 5690
5716 5715 5713 5712 5710 5708 5706 5705 5704 5699 5698 5698 5694 5687 5682 5682 5684 5685 5684 5683 5682 5682 5681 5681 5681 5681 5680 5681 5682 5682 5682 5683 5683 5683 5682 5682 5681 5680 5681 5681 5683 5683 5684
5712 5712 5711 5709 5707 5706 5703 5703 5702 5699 5695 5695 5695 5689 5681 5675 5676 5677 5678 5678 5677 5677 5676 5676 5675 5675 5675 5675 5676 5676 5676 5677 5677 5677 5676 5676 5675 5674 5674 5675 5676 5677 5677
5709 5709 5708 5707 5705 5703 5702 5701 5700 5698 5696 5692 5692 5691 5689 5684 5676 5670 5671 5672 5673 5672 5672 5671 5670 5670 5670 5670 5670 5670 5670 5670 5670 5670 5670 5669 5669 5668 5668 5669 5669 5669 5670
5706 5706 5705 5704 5702 5701 5700 5699 5698 5696 5695 5692 5690 5688 5685 5682 5679 5672 5665 5665 5666 5667 5667 5666 5666 5665 5665 5665 5665 5664 5664 5664 5664 5664 5663 5663 5663 5662 5662 5662 5662 5662 5662
5702 5702 5701 5701 5699 5698 5697 5696 5695 5694 5692 5691 5688 5686 5683 5680 5676 5672 5665 5662 5660 5661 5661 5661 5660 5660 5660 5660 5659 5659 5658 5658 5658 5657 5657 5656 5656 5656 5655 5655 5655 5655 5654
5697 5698 5698 5697 5696 5695 5694 5693 5692 5690 5689 5687 5685 5683 5682 5680 5678 5673 5667 5661 5658 5656 5656 5656 5655 5655 5655 5655 5654 5654 5653 5652 5652 5651 5650 5650 5649 5648 5648 5647 5647 5647 5647
5696 5696 5695 5694 5694 5693 5691 5690 5688 5687 5686 5684 5682 5680 5679 5677 5676 5673 5668 5661 5655 5651 5651 5650 5651 5651 5650 5650 5649 5648 5647 5646 5646 5645 5644 5643 5642 5641 5640 5640 5639 5638 5638
5695 5693 5693 5692 5690 5689 5688 5687 5684 5683 5682 5680 5678 5677 5675 5673 5672 5670 5668 5665 5657 5649 5645 5646 5646 5646 5646 5645 5644 5643 5642 5641 5640 5639 5638 5637 5635 5634 5633 5632 5631 5630 5629
5692 5691 5689 5688 5687 5685 5684 5683 5681 5679 5678 5676 5675 5673 5671 5669 5668 5667 5665 5662 5659 5653 5645 5643 5642 5642 5641 5640 5639 5638 5636 5635 5634 5633 5632 5631 5629 5628 5627 5625 5624 5622 5621
5689 5688 5686 5685 5683 5682 5680 5679 5677 5675 5673 5672 5671 5669 5667 5666 5664 5662 5660 5658 5655 5652 5644 5640 5640 5638 5637 5635 5633 5632 5631 5629 5628 5627 5625 5624 5623 5621 5620 5618 5616 5615 5613
5686 5685 5683 5681 5680 5678 5677 5675 5673 5671 5669 5667 5666 5665 5663 5662 5659 5657 5655 5653 5650 5648 5643 5637 5634 5633 5631 5630 5628 5626 5625 5624 5622 5621 5619 5617 5616 5614 5612 5611 5609 5607 5605
5682 5681 5680 5678 5676 5675 5673 5672 5670 5668 5666 5664 5662 5660 5658 5657 5654 5652 5650 5648 5645 5643 5639 5635 5630 5628 5626 5624 5622 5620 5619 5618 5616 5615 5613 5611 5609 5607 5605 5603 5601 5598 5596
5677 5676 5675 5674 5673 5671 5670 5668 5666 5664 5662 5660 5658 5657 5655 5653 5651 5648 5646 5642 5640 5636 5633 5629 5625 5622 5620 5618 5616 5613 5611 5610 5609 5608 5606 5604 5602 5600 5597 5595 5593 5590 5588
5673 5671 5670 5669 5668 5667 5666 5664 5662 5660 5657 5655 5654 5652 5651 5650 5648 5646 5643 5638 5635 5630 5626 5623 5618 5615 5613 5611 5609 5607 5605 5603 5602 5601 5599 5598 5595 5593 5590 5587 5585 5582 5580
5667 5666 5664 5663 5663 5663 5662 5661 5659 5655 5653 5651 5649 5647 5646 5645 5644 5642 5640 5637 5633 5628 5622 5618 5614 5611 5609 5607 5605 5603 5599 5595 5594 5595 5592 5590 5588 5586 5583 5580 5578 5576 5573
5662 5660 5659 5659 5658 5658 5658 5657 5654 5652 5648 5646 5644 5642 5642 5640 5638 5636 5634 5632 5628 5626 5623 5618 5613 5610 5607 5605 5601 5597 5594 5590 5589 5589 5586 5583 5581 5578 5577 5574 5571 5568 5565
5657 5655 5654 5654 5653 5653 5653 5651 5649 5646 5643 5641 5639 5638 5636 5634 5633 5630 5628 5624 5621 5619 5617 5615 5612 5609 5606 5603 5599 5595 5591 5587 5584 5582 5579 5574 5573 5570 5570 5567 5564 5560 5556
5652 5651 5650 5649 5648 5648 5648 5647 5644 5641 5638 5635 5634 5633 5631 5629 5628 5625 5622 5617 5614 5613 5612 5610 5608 5605 5601 5598 5594 5589 5584 5579 5576 5574 5572 5567 5565 5562 5560 5558 5555 5551 5547
5648 5647 5645 5644 5644 5643 5643 5642 5640 5637 5632 5630 5628 5628 5627 5625 5623 5620 5617 5613 5609 5607 5605 5603 5600 5597 5594 5591 5588 5585 5580 5574 5569 5566 5565 5560 5556 5552 5549 5548 5545 5542 5538